Regional Weather Roundup
Issued by NWS

Home | Current Version | Previous Version | Graphics & Text | Print | Product List | Glossary On
Versions: 1 2 3 4 5 6 7 8 9 10 11 12 13 14 15 16 17 18 19 20 21 22 23 24 25 26 27 28 29 30 31 32 33 34 35 36 37 38 39 40 41 42 43 44 45 46 47 48 49 50
525
ASUS44 KLIX 160410
RWRLA
LOUISIANA WEATHER ROUNDUP
NATIONAL WEATHER SERVICE NEW ORLEANS LA
1100 PM CDT TUE APR 15 2014

NOTE: "FAIR" INDICATES FEW OR NO CLOUDS BELOW 12,000 FEET WITH NO
      SIGNIFICANT WEATHER AND/OR OBSTRUCTIONS TO VISIBILITY.
      SKY/WX - SKY CONDITION AND SIGNIFICANT WEATHER.
      TMP - AIR TEMPERATURE.    DP   - DEWPOINT TEMPERATURE.
      RH  - RELATIVE HUMIDITY.  PRES - PRESSURE.
      HX  - HEAT INDEX.         WCI  - WIND CHILL INDEX.

*  THESE STATIONS ARE NOT NWS OR FAA STATIONS AND ARE NOT UNDER
   NWS QUALITY CONTROL.

LAZ040-048-061>063-065-066-069-160500-
SOUTHEAST LOUISIANA

CITY           SKY/WX    TMP DP  RH WIND       PRES   REMARKS
N.O. AUDUBON   NOT AVBL
N.O. INTL ARPT PTCLDY    53  32  44 N17       30.18F
N.O. LAKEFRONT CLEAR     54  34  46 N26       30.20S
N.O. DOWNTOWN* FAIR      54  28  37 N9G17     30.19F
SLIDELL        CLEAR     46  34  62 N5        30.20S
BATON ROUGE    CLEAR     46  33  60 NE5       30.21S
BOOTHVILLE     CLEAR     56  38  50 N13G28    30.16R
BELLE CHASSE   CLEAR     52  31  44 N6        30.17F
BOGALUSA*        N/A     44  35  72 N3        30.23R
GALLIANO*      CLEAR     53  38  56 N10       30.16F
NEW ROADS*     FAIR      46  33  59 NE12      30.21F
GONZALES*      FAIR      48  32  54 N5        30.19F
HAMMOND*       CLEAR     43  34  70 CALM      30.23S
HOUMA*           N/A     49  34  54 N12       30.17F
PORT FOURCHON* CLEAR     55  37  50 NE14G22   30.17S

$$

LAZ041-044-053-054-160500-
SOUTHWEST LOUISIANA

CITY           SKY/WX    TMP DP  RH WIND       PRES   REMARKS
LAKE CHARLES   CLEAR     47  36  65 N5        30.18S
LAFAYETTE      CLEAR     47  34  60 NE6       30.19R
PATTERSON      CLEAR     50  34  53 N12G18    30.20F
SALT POINT       N/A     52  36  54 N6        30.16F
NEW IBERIA     CLEAR     50  34  54 NE13      30.19S
CHENAULT AIRPK CLEAR     47  37  68 N3        30.20S

$$

LAZ027-028-160500-
CENTRAL LOUISIANA

CITY           SKY/WX    TMP DP  RH WIND       PRES   REMARKS
FORT POLK      CLEAR     45  39  79 NE5       30.18F
ALEXANDRIA INT CLEAR     47  35  63 NE8       30.19F
ALEXANDRIA     CLEAR     41  38  89 NE3       30.22S

$$

LAZ001-002-160500-
NORTHWEST LOUISIANA

CITY           SKY/WX    TMP DP  RH WIND       PRES   REMARKS
SHREVEPORT     CLEAR     45  37  73 CALM      30.19F
BARKSDALE AFB  CLEAR     44  38  80 CALM      30.20F
DTN SHREVEPORT CLEAR     42  36  79 CALM      30.20F

$$

LAZ014-016-160500-
NORTHEAST LOUISIANA

CITY           SKY/WX    TMP DP  RH WIND       PRES   REMARKS
MONROE         CLEAR     43  36  76 E5        30.25S
TALLULAH       CLEAR     46  37  71 NE7       30.25S

$$




USA.gov is the U.S. government's official web portal to all federal, state and local government web resources and services.